Showing default

HULIANWANG DIGUI-37, 64958

Orbit data source: Space-Track

HULIANWANG DIGUI-37, 64958 is a payload satellite owned by Zhongguo Xingwang (CN) in LEO that was launched on Sun, 27 Jul 2025 UTC via a CHANG ZHENG 6A launch vehicle from the Taiyaun Space Center, China (TSC). Payload-class satellites include a variety of spacecraft equipped with specific instruments for various scientific and technological missions. These include communications satellites like Starlink; space stations such as the ISS; scientific satellites like the Hubble; Earth observation satellites from companies like Planet Labs, Umbra, and HawkEye 360; GPS; miniature CubeSats for education and research; and military/defense satellites.

Loading next visibility...
Identifier
64958, 2025-159C
Orbit
LEO
Country
Flag of CNCN / PRC
Related business
Manufacturer
CAST
Mission
Operational Civil Communications
Bus & Motor
GUOWANG C, Unknown motor
Mass
~800 kg wet, ~800 kg dry
Launch date (UTC)
2025-07-27 (4 months ago)
Launch vehicle
CHANG ZHENG 6A
Launch site
Taiyaun Space Center, China (TSC)
Object type
Payload
Rocket body
Debris
Shape & HBR
Box + 2 Pan, 2.6 m
Radar Cross Section
5.935 m², Large (>1 m²)

Expand to show TLE details & history
Last TLE update: 9 hours ago

TLE from 9 hours ago
0 HULIANWANG DIGUI-37
1 64958U 25159C   25342.63219577  .00000046  00000-0  72644-4 0  9997
2 64958  86.4924 346.7296 0001765 100.9064 259.2269 13.24411283 17904
Epoch: 2025-12-08T15:10Z
TLE epoch observation values (Epoch: 2025-12-08T15:10:21.714Z)
Latitude
0.00001°
Longitude
41.51068°
Altitude
1,171.061 km
Speed
7.268 km/s
True Right ascension
23h 06m 55s
True Declination
0° 00' 00"
Sunlit
Object was in daylight at epoch
Visualization orbit readout
Latitude
Unknown
Longitude
Unknown
Altitude
Unknown
Speed
Unknown
Apparent Right ascension
Unknown
Apparent Declination
Unknown
Sunlit
N/A
Visualization observer readout
Local Sidereal Time
21:53:12
Azimuth
Unknown
Elevation
Unknown
Doppler factor
Unknown
Orbital elements
Apogee altitude
1,166.369 km
Perigee altitude
1,163.706 km
Semi-major axis
7,543.174 km
Eccentricity
0.00018
Inclination
86.4924°
RAAN
346.7296°
Arg. of periapsis
100.9064°
True anomaly
259.20703°
Mean anomaly
259.2269°
Eccentric anomaly
259.21697°
Mean motion
3.31293 °/min
Orbital period
108.67 mins
BSTAR
0.000072644
Loading maneuver chart data...
Computing Atmospheric mass density...
Loading historical data...
Loading historical data...
Loading historical data...
Loading historical data...
Loading historical data...
Loading historical data...
Loading historical data...

Documentation

Showing up to 5 results
|